Date,TemperatureHighF,TemperatureAvgF,TemperatureLowF,DewpointHighF,DewpointAvgF,DewpointLowF,HumidityHigh,HumidityAvg,HumidityLow,PressureMaxIn,PressureMinIn,WindSpeedMaxMPH,WindSpeedAvgMPH,GustSpeedMaxMPH,PrecipitationSumIn
2013-10-1,96,82,69,78,74,69,99,80,49,29.86,29.73,4,1,11,0.00
2013-10-2,95,82,69,79,74,68,99,81,52,29.82,29.70,5,1,12,0.00
2013-10-3,96,81,69,81,75,69,99,85,50,29.77,29.61,4,1,10,0.00
2013-10-4,94,82,68,81,74,68,99,81,54,29.77,29.67,6,1,14,0.01
2013-10-5,96,82,69,79,74,69,99,80,51,29.82,29.70,5,1,13,0.00
2013-10-6,94,81,70,79,73,70,99,79,50,29.79,29.65,5,1,13,0.00
2013-10-7,92,78,66,75,71,66,99,80,52,29.75,29.62,5,1,12,0.00
2013-10-8,95,79,63,77,72,63,99,82,52,29.70,29.62,5,1,11,0.00
2013-10-9,95,80,63,80,71,63,99,79,52,29.82,29.67,5,1,13,0.00
2013-10-10,95,83,76,77,72,66,99,73,41,29.89,29.73,5,1,11,0.00
2013-10-11,94,82,68,73,68,62,99,67,36,29.82,29.68,5,1,12,0.00
2013-10-12,95,80,65,74,68,64,99,70,40,29.78,29.68,4,1,14,0.00
2013-10-13,104,81,67,82,74,55,99,83,48,29.78,29.65,7,1,11,0.00
2013-10-14,103,85,77,86,81,62,99,88,68,29.77,29.63,5,1,11,0.00
2013-10-15,105,84,76,86,80,59,99,90,66,29.83,29.69,5,1,12,0.00
2013-10-16,111,84,75,80,78,73,99,83,58,29.87,29.74,4,1,13,0.01
2013-10-17,90,78,72,83,77,61,99,95,69,29.86,29.72,3,0,8,0.00
2013-10-18,95,82,74,83,78,55,99,88,59,29.82,29.72,5,1,11,0.00
2013-10-19,111,82,72,80,74,55,99,79,48,29.84,29.74,7,1,12,0.00
2013-10-20,101,83,74,79,74,60,99,78,45,29.83,29.70,6,1,14,0.00
2013-10-21,105,82,74,79,74,56,99,81,39,29.77,29.67,6,1,12,0.00
2013-10-22,102,77,71,84,76,62,99,97,79,29.76,29.67,4,1,10,0.01
2013-10-23,95,82,61,86,77,57,99,86,61,29.77,29.64,6,1,13,0.00
2013-10-24,95,81,70,84,75,62,99,83,55,29.76,29.65,5,1,11,0.00
2013-10-25,96,81,59,79,71,53,99,76,40,29.82,29.69,4,1,11,0.00
2013-10-26,97,84,72,78,73,66,99,74,40,29.86,29.75,4,1,11,0.00
2013-10-27,96,83,70,81,74,70,99,77,45,29.84,29.75,4,1,11,0.00
2013-10-28,81,73,70,77,73,70,99,98,85,29.84,29.80,2,0,4,0.00